Theta_e
303 303 304 305 305 305 305 306 306 306 309 309 310 308 306 304 304 304 305 307 305 306 306 307 313 317 316 313 314 316 314 316 318 321 321 323 320 323 323 324 328 330 345 345 347
302 302 302 302 303 303 304 305 307 309 308 309 310 312 308 304 303 303 311 311 306 304 308 310 312 316 312 312 314 312 316 320 319 320 319 321 321 322 321 323 323 330 329 338 346
305 304 303 303 303 304 305 307 307 309 311 309 309 311 311 304 303 316 322 317 307 304 308 310 311 314 310 311 312 312 320 321 321 321 322 323 323 324 322 321 323 322 326 326 343
307 305 306 307 309 309 310 310 310 310 311 311 309 310 311 306 308 314 316 316 311 304 308 309 310 311 308 308 311 312 313 318 323 326 324 319 321 327 330 326 324 323 324 323 325
308 310 310 311 311 311 311 311 311 312 312 312 309 309 310 307 307 314 318 313 312 305 307 308 310 311 307 307 311 311 313 315 316 320 320 324 324 328 326 327 321 320 320 321 322
310 311 311 312 312 312 312 311 312 312 312 310 309 309 310 309 309 317 312 310 310 306 307 310 310 312 312 310 309 312 313 314 316 316 317 321 318 319 326 326 324 320 320 319 320
310 311 312 312 313 311 311 311 312 313 312 308 308 308 310 313 311 315 312 310 307 307 309 310 311 312 313 312 315 313 312 313 313 314 315 317 316 317 321 322 320 320 320 319 319
314 314 313 313 313 312 310 312 312 313 311 307 306 309 312 312 313 314 314 310 307 309 309 311 311 313 314 316 313 310 310 310 312 313 314 316 316 317 318 318 318 320 320 320 319
310 310 310 310 311 311 311 312 312 312 310 309 309 311 314 316 313 313 314 312 310 310 310 311 308 310 314 312 311 310 311 311 312 313 315 315 315 316 319 318 319 319 319 319 319
309 309 309 309 310 310 311 312 312 312 314 311 314 315 317 318 318 315 314 315 311 310 309 309 312 311 309 310 312 312 314 313 314 315 314 314 314 315 317 317 317 318 318 318 319
308 309 309 310 310 310 313 311 315 319 316 316 316 316 318 320 317 315 313 315 315 313 312 315 314 313 312 312 314 314 314 315 316 316 317 315 314 315 316 315 315 317 318 318 318
308 309 310 310 310 314 316 313 315 316 314 317 317 318 318 318 319 316 314 314 314 311 313 313 314 313 314 314 315 315 315 315 315 315 314 314 315 314 314 313 316 317 318 319 319
308 308 309 309 312 317 317 317 316 316 314 316 317 318 318 319 319 318 313 314 314 313 313 312 314 315 315 315 316 315 316 315 316 316 315 316 315 315 315 316 316 317 319 319 319
307 308 308 309 315 318 317 318 317 317 315 318 320 320 320 319 318 318 318 317 315 313 312 313 313 315 316 316 315 315 315 316 316 315 315 314 314 313 314 315 317 318 319 319 319
306 308 309 308 311 313 317 317 316 316 325 323 319 319 319 318 317 317 317 315 316 315 312 314 316 316 316 316 315 315 316 315 316 315 313 314 313 313 315 317 316 314 319 321 321
305 306 308 309 312 317 317 316 317 321 327 325 318 317 316 317 317 318 317 317 317 315 315 314 316 316 315 316 316 315 314 311 310 310 313 313 313 313 315 316 315 317 319 321 322
304 305 307 308 313 317 317 316 318 323 324 323 318 316 316 317 317 317 317 316 316 316 315 316 316 316 317 318 316 312 311 312 313 313 314 313 314 313 316 320 318 318 317 319 320
303 304 306 310 314 315 317 315 322 325 327 325 319 317 317 317 317 317 317 316 316 316 315 316 316 318 319 319 320 318 312 312 315 314 314 317 318 319 320 318 316 317 317 319 320
303 305 307 313 317 317 318 320 322 324 323 321 319 318 317 322 321 318 317 317 316 314 316 316 317 319 320 320 319 320 319 315 315 316 317 316 318 317 319 317 317 317 317 317 317
305 307 309 317 317 317 316 320 322 324 320 320 320 321 324 321 323 322 318 320 318 315 313 315 317 319 321 320 319 320 319 320 314 321 321 318 320 317 321 319 319 317 318 319 317
306 309 318 319 317 318 318 318 321 321 320 321 321 320 319 320 322 323 324 322 320 318 314 316 316 318 318 319 320 318 317 317 316 315 317 319 318 317 321 319 317 313 315 316 317
308 308 318 318 316 314 316 318 319 323 323 320 319 318 318 318 319 319 321 322 319 318 319 316 315 318 319 315 316 316 319 318 317 321 313 311 315 317 315 313 313 312 314 314 314
308 309 315 318 318 317 317 320 320 323 323 319 319 319 317 317 317 318 318 316 316 315 318 315 316 318 316 316 315 319 319 319 319 321 325 325 324 316 314 312 312 311 312 313 313
308 313 315 317 315 315 317 319 321 321 320 319 317 316 315 316 312 317 317 315 316 317 317 314 314 316 317 317 315 318 317 318 317 323 323 323 322 319 317 312 311 311 312 312 310
309 313 312 314 315 314 315 316 319 320 318 317 317 317 316 315 313 314 313 313 313 313 314 310 314 316 316 316 316 316 316 315 317 318 320 317 319 317 314 312 311 311 311 310 310
310 311 311 311 312 314 315 317 318 317 316 316 318 315 313 313 313 313 312 312 314 311 312 309 313 314 314 314 312 313 312 313 313 313 317 317 316 312 312 311 310 310 309 308 308
309 310 311 311 311 312 312 312 316 315 313 313 313 312 312 311 311 311 311 311 310 310 310 310 309 309 312 311 311 311 310 311 314 314 314 314 312 310 310 309 309 309 308 307 307
Wind_Speed
18 18 18 18 18 19 20 20 18 18 17 16 15 15 16 17 20 23 30 28 22 13 15 20 30 23 16 10 15 12 4 5 6 6 6 11 6 13 15 13 4 5 21 20 22
18 18 18 18 19 18 19 19 20 18 18 17 15 15 16 17 21 28 16 18 17 24 20 20 33 26 8 12 9 6 6 12 5 0 5 12 5 11 10 13 11 7 11 20 22
18 18 18 18 18 19 19 20 20 20 19 18 16 15 16 16 21 9 3 6 16 26 22 13 27 27 10 8 11 4 12 13 4 12 9 14 23 9 8 2 6 8 5 12 21
18 17 18 18 18 19 20 20 22 22 20 19 17 14 14 12 5 6 10 9 14 29 28 19 15 16 5 6 13 5 6 9 19 29 20 6 20 19 18 17 10 9 9 7 7
18 18 18 18 20 21 22 23 24 24 21 20 17 12 13 8 18 11 11 9 23 34 32 23 19 16 7 8 2 5 2 17 19 19 21 25 29 21 24 25 11 7 7 16 13
19 20 21 21 22 24 25 26 26 23 20 18 14 12 10 6 9 10 9 4 27 36 27 21 17 20 11 5 10 6 13 10 18 22 31 27 20 9 40 38 33 19 11 7 12
21 22 23 24 26 27 28 27 25 20 16 11 11 11 13 23 11 7 4 3 22 34 33 27 12 17 8 4 16 24 4 7 17 20 13 21 13 17 40 34 34 34 20 14 13
25 25 26 26 27 29 29 28 23 16 12 6 9 10 12 8 13 15 7 11 20 20 25 22 21 18 4 6 2 8 4 5 9 13 19 17 20 18 35 35 34 29 28 23 18
25 27 28 28 28 29 30 27 15 10 6 5 8 7 13 7 14 12 14 9 19 19 20 6 16 11 4 3 4 3 5 5 8 12 10 17 8 12 27 28 28 29 27 25 25
27 27 27 25 24 27 31 15 4 6 3 5 6 6 11 3 8 14 17 14 15 17 11 12 11 5 2 4 4 5 3 4 6 4 5 4 7 10 21 19 26 31 27 26 25
28 28 24 23 24 30 21 1 3 2 11 13 8 9 15 7 5 13 13 18 16 8 6 9 4 5 8 7 6 3 3 5 4 6 1 6 5 15 17 17 18 23 25 28 30
28 27 25 25 25 16 9 2 2 1 9 19 23 23 23 21 6 14 19 11 8 6 3 4 6 10 6 6 5 5 3 6 6 5 5 4 6 7 3 7 23 28 24 24 23
28 29 27 24 20 5 10 4 10 7 4 8 17 15 15 11 8 11 19 15 4 4 4 6 4 4 5 4 4 5 4 6 7 3 1 2 5 4 4 4 7 16 20 25 27
28 29 27 25 9 6 3 10 14 3 3 5 5 6 12 9 5 11 22 12 1 8 5 5 6 4 3 6 7 6 7 11 9 4 3 2 4 4 5 6 3 6 14 18 20
27 27 27 24 19 17 1 8 5 3 2 4 4 4 9 14 2 9 20 16 7 5 6 6 1 2 2 5 6 9 9 13 7 3 5 2 4 6 2 3 5 7 14 14 19
29 26 28 21 18 8 7 1 2 3 5 3 6 6 5 5 2 7 9 18 4 4 2 6 2 2 5 4 1 6 4 7 4 4 1 4 5 5 2 2 5 5 11 10 14
30 26 24 24 12 9 5 2 3 3 1 5 5 5 6 5 4 5 6 7 5 3 2 2 2 2 1 1 7 7 6 2 3 2 5 3 3 7 2 2 6 3 7 3 4
30 27 22 16 11 13 4 3 4 6 5 3 5 5 5 5 5 6 6 4 2 3 3 5 2 5 0 3 3 2 5 5 7 4 4 4 4 3 2 9 13 11 11 15 18
33 29 19 9 16 16 7 3 6 5 3 2 3 4 4 2 4 4 7 7 6 6 7 5 1 4 4 2 4 1 3 3 6 3 3 3 5 2 4 8 12 14 12 7 9
32 32 16 11 15 18 3 5 5 5 0 2 3 1 3 5 3 3 6 2 4 6 4 5 2 2 2 0 3 3 3 2 3 5 4 3 3 4 2 5 3 6 8 7 7
22 14 5 15 17 8 4 6 5 13 6 4 5 3 3 4 5 1 1 3 6 4 5 3 4 3 1 1 2 4 2 4 4 4 4 3 5 4 5 5 7 8 10 10 11
10 3 7 14 1 2 3 5 5 8 14 3 3 4 4 3 3 3 4 2 3 4 3 2 4 2 3 5 1 3 2 4 4 4 2 3 5 4 6 6 13 13 13 17 16
17 8 2 16 3 4 5 6 6 3 4 3 2 2 3 3 5 4 4 5 4 3 3 3 1 2 3 4 6 4 3 5 4 3 4 2 3 5 7 8 13 14 10 11 12
8 4 5 0 2 3 5 4 4 1 2 6 6 4 4 4 6 3 4 6 7 7 12 5 3 3 5 3 2 1 2 3 6 2 2 8 3 11 6 6 9 10 6 7 9
3 3 4 3 4 7 5 5 5 2 6 4 5 3 4 4 3 4 3 3 8 9 6 4 3 2 1 2 2 4 5 7 7 6 8 6 8 10 4 3 5 8 5 8 12
4 4 8 7 9 5 3 4 2 2 4 2 5 1 5 5 2 5 5 1 2 6 4 4 3 2 3 3 3 3 8 7 8 11 11 11 9 3 6 4 6 9 4 10 17
6 6 3 5 4 3 3 6 6 5 9 8 6 4 8 4 5 7 4 6 7 5 2 3 5 3 3 5 6 6 6 7 2 4 5 8 4 2 1 5 7 9 4 16 25
Wind_Direction
328 329 329 329 329 330 330 330 333 334 335 316 311 310 300 294 285 275 267 272 256 228 221 214 204 207 209 226 199 211 114 199 201 179 266 237 52 341 350 6 306 278 165 163 167
325 326 325 325 324 325 325 325 326 330 329 321 304 306 305 298 295 285 297 280 244 209 208 204 198 199 209 210 209 198 188 221 195 299 305 315 10 344 337 10 29 74 135 150 175
327 325 323 323 323 322 321 321 321 322 321 319 299 296 303 309 308 265 280 313 211 198 196 188 199 193 203 203 201 221 211 219 193 278 259 312 301 314 316 120 321 7 311 162 177
330 327 326 325 324 321 321 318 319 314 313 312 298 285 295 307 274 290 295 301 204 187 191 194 178 178 182 207 208 180 207 164 223 249 267 265 291 292 283 285 237 224 230 264 225
332 331 328 327 325 323 319 316 316 307 304 307 289 270 285 278 265 303 305 276 188 186 190 194 178 174 187 194 142 195 164 198 230 237 275 291 275 264 277 274 261 218 194 201 224
328 327 325 324 323 321 319 316 314 302 298 302 272 256 262 262 280 304 343 266 182 182 182 186 187 177 192 205 184 209 212 209 239 232 237 243 255 271 273 278 278 263 250 201 211
321 319 318 318 318 321 318 319 314 297 292 293 254 252 260 257 280 290 336 234 184 183 185 188 192 194 199 177 232 229 167 225 231 230 236 234 257 233 245 259 268 269 268 251 235
317 315 314 313 315 317 318 319 312 289 282 268 251 254 257 272 231 246 194 174 192 190 201 203 197 213 264 290 102 159 154 224 235 218 233 188 241 241 244 239 235 243 257 266 257
319 317 314 313 314 318 317 321 306 272 268 240 238 234 266 222 223 234 218 182 180 195 207 153 212 228 248 152 19 355 177 183 270 201 204 185 210 226 233 224 229 238 245 251 254
323 321 318 318 319 319 319 321 283 251 214 189 209 282 253 196 287 234 240 212 174 186 205 209 212 186 86 103 202 214 197 206 212 235 200 154 246 252 250 239 234 240 247 249 249
329 327 325 320 323 320 319 318 173 203 216 216 188 229 295 294 225 208 221 214 219 182 173 184 152 198 206 181 191 237 225 233 238 240 261 249 268 266 267 227 222 238 242 246 253
332 331 326 322 325 326 342 191 325 354 287 264 248 252 260 272 293 237 206 193 168 203 133 40 211 216 201 176 203 223 248 276 283 266 160 242 239 260 277 227 217 227 237 246 239
331 331 329 324 321 300 330 23 0 289 256 274 232 232 243 219 224 244 196 194 146 138 168 173 236 168 169 224 207 232 197 254 218 329 210 220 307 326 311 273 216 232 230 238 236
328 331 331 326 311 276 357 348 349 163 20 262 221 231 180 183 239 236 197 189 119 185 171 228 284 222 214 237 184 256 207 238 254 134 219 110 264 284 299 313 343 251 254 260 262
322 326 328 322 292 278 300 337 344 108 332 170 167 165 171 166 146 187 199 203 174 185 118 233 220 79 239 207 161 229 217 207 210 180 123 334 87 270 315 293 287 297 301 275 279
320 322 321 312 281 219 280 1 144 36 253 209 150 169 140 180 175 165 161 201 203 160 202 218 234 222 215 273 209 274 107 53 48 96 206 219 138 287 241 275 293 281 276 291 290
317 318 312 291 272 193 273 191 67 199 243 180 194 160 176 172 186 172 159 157 170 152 231 282 211 264 242 56 359 50 60 0 323 352 214 281 102 228 281 327 248 285 323 335 322
316 315 306 268 218 234 220 58 206 231 230 245 151 124 181 162 220 179 136 176 208 145 122 180 219 166 59 122 191 17 134 151 204 200 230 315 226 208 10 43 68 85 98 105 110
320 318 304 243 209 203 185 189 217 217 265 304 112 137 217 165 140 132 185 199 195 166 161 164 255 78 100 167 132 217 58 175 105 14 71 258 292 3 36 39 45 58 65 72 113
330 323 302 198 190 177 121 240 249 232 250 332 152 192 164 196 112 119 159 2 156 187 163 198 132 31 111 281 28 124 150 71 16 144 202 286 265 216 69 63 43 22 14 34 43
336 326 338 178 174 173 196 232 276 287 265 175 201 116 148 134 127 202 58 31 28 13 126 107 111 272 87 88 140 21 46 71 109 133 164 169 255 215 137 20 355 22 37 62 75
357 330 46 159 99 219 202 208 267 289 304 196 123 116 137 127 120 122 119 124 257 349 48 16 124 151 211 309 285 90 120 119 138 202 163 160 261 69 48 34 84 54 76 75 76
322 280 54 200 256 268 281 289 289 302 316 346 114 167 81 118 108 108 99 21 92 88 157 165 44 96 24 349 12 102 120 118 103 81 193 212 268 166 80 62 57 51 69 66 58
306 326 321 84 111 359 330 279 285 226 55 16 344 87 85 67 18 112 95 15 31 83 59 89 91 147 189 149 164 157 92 146 121 188 226 229 256 291 345 60 34 32 70 28 13
281 293 346 324 339 335 315 294 309 283 122 102 328 34 138 112 80 87 58 30 36 1 41 81 113 81 7 289 276 206 212 219 212 184 200 202 211 248 172 110 53 8 358 349 343
310 339 342 301 302 274 304 287 256 263 334 64 146 73 79 104 149 161 131 120 147 18 62 359 136 82 315 325 39 275 270 254 232 231 227 229 245 135 119 59 4 354 312 339 335
323 306 297 288 329 16 319 292 273 146 18 71 124 91 71 106 104 123 115 140 155 132 116 93 125 100 260 351 325 287 242 229 134 39 232 221 182 92 38 322 324 322 307 334 330